ARIANE 2 DEB, 33561

Orbit data source: Space-Track

ARIANE 2 DEB, 33561 is space debris in HEO originally from a launch on Fri, 27 Jan 1989 UTC launched from the French Guiana (FRGUI). Debris objects in space refer to the collection of defunct objects orbiting the Earth. Examples of debris include non-operational satellites, rocket bodies, and fragments generated from explosions, collisions, or faulty payload assembly.

Loading next visibility...
Identifier
33561, 1989-006BD
Orbit
HEO
Country
Flag of FRFR
Related business
Manufacturer
EADS/LV
Mission
Spacecraft
Bus & Motor
Unknown
Mass
Unknown
Launch date (UTC)
1989-01-27 (37 years ago)
Launch vehicle
Unknown
Launch site
French Guiana (FRGUI)
Object type
Payload
Rocket body
Debris
Shape & HBR
Unknown shape, 0.2 m
Radar Cross Section
Medium (>0.1 m² and <1 m²)

Expand to show TLE details & history
Last TLE update: 3 months ago

TLE from 3 months ago
0 ARIANE 2 DEB
1 33561U 89006BD  25186.43971828 -.00000105  00000-0  00000-0 0  9992
2 33561   9.3072   3.7623 6985237 234.5818  18.5741  2.22242804  6124
Epoch: 2025-07-05T10:33Z
TLE epoch observation values (Epoch: 2025-07-05T10:33:11.659Z)
Latitude
-4.91876°
Longitude
-109.65914°
Altitude
6,891.781 km
Speed
6.633 km/s
True Right ascension
22h 09m 16s
True Declination
-4° 54' 11"
Sunlit
Object was in daylight at epoch
Visualization orbit readout
Latitude
Unknown
Longitude
Unknown
Altitude
Unknown
Speed
Unknown
Apparent Right ascension
Unknown
Apparent Declination
Unknown
Sunlit
N/A
Visualization observer readout
Local Sidereal Time
04:42:02
Azimuth
Unknown
Elevation
Unknown
Doppler factor
Unknown
Orbital elements
Apogee altitude
35,759.492 km
Perigee altitude
1,101.003 km
Semi-major axis
24,808.385 km
Eccentricity
0.69852
Inclination
9.3072°
RAAN
3.7623°
Arg. of periapsis
234.5818°
True anomaly
93.95432°
Mean anomaly
18.5741°
Eccentric anomaly
48.59143°
Mean motion
0.55545 °/min
Orbital period
648.12 mins
BSTAR
0
Loading maneuver chart data...
Computing Atmospheric mass density...
Loading historical data...
Loading historical data...
Loading historical data...
Loading historical data...
Loading historical data...
Loading historical data...
Loading historical data...

Documentation

Showing up to 5 results
|